Погода в Церковище

Россия / Псковская область     55°53′23″N   30°50′52″E
темп.,
°C
ветер,
м/с
пор.,
м/с
влажн.,
%
обл.,
%
осадки,
мм/ч
давл.,
гПа
погр.,
м
7 марта, вс
вс700:00−3зюз71590100 0.3 10081212
03:00−2зюз81684100 0.5 10031183
06:00−1зюз81792100 1.2 9981393
09:00−3сз61273100 3.7 9971075
12:00−2зюз3550100 0.3 9951460
15:00−1зсз81653100 1.1 9952629
18:00−4зсз5136275 0.3 9971649
21:00−5з5127881 0.3 9981048
8 марта, пн
пн800:00−5з4118290 0.0 999835
03:00−5зсз499295 0.3 1000654
06:00−6сз41088100 0.1 1001707
09:00−9сз598674 0.2 1004746
12:00−6ссз5775100 0.1 1007979
15:00−6ссз5874100 0.2 10091010
18:00−7ссз4879100 0.1 1011964
21:00−8ссз3886100 0.1 1014789
9 марта, вт
вт900:00−10ссз279395 0.0 1015396
03:00−11ссз269681 0.1 1017298
06:00−13ссз269799 0.0 1018283
09:00−12ссз259098 0.1 1020346
12:00−8сз236883 0.0 1020702
15:00−6ссз246379 0.0 1021952
18:00−7с117497 0.0 1020112
21:00−8юв228399 0.0 102178
10 марта, ср
ср1000:00−8ююв3694100 0.3 1021268
03:00−7ю3890100 0.4 1020478
06:00−7ююз3784100 0.1 1019422
09:00−6ююз3693100 0.8 1019415
12:00−3юв1290100 2.2 1020308
15:00−3в3590100 2.9 1020371
18:00−6в5992100 0.4 1020336
21:00−8вюв4893100 0.9 1020274
11 марта, чт
чт1100:00−7вюв359599 0.9 1020180
03:00−5ю279799 1.4 1019260
06:00−5ююз389699 0.4 1018383
09:00−4ююз3794100 1.2 1018416
12:00−1ююз487873 0.1 1016758
15:000ююз596844 0.1 10151228
18:00−2ю5117550 0.0 1012915
21:00−2ю7157875 0.0 10091003